Location: Oberkirch
(48.5323°N, 8.0787°E)
Time: 05:52:59
(UTC+00:00)

Tiros 1 - Pass Details

Date: 25 February 2026
Orbit: 618 x 650 km, 48.4° (Epoch: 13 March)

Event Time Altitude Azimuth Distance (km) Brightness Sun altitude
Rises 05:47:29 0° 231° (SW) 2,926 10.1 -5.7°
Reaches altitude 10° 05:49:53 10° 225° (SW) 2,014 9.3 -5.3°
Maximum altitude 05:54:17 44° 154° (SSE) 870 8.2 -4.6°
Drops below altitude 10° 05:58:40 10° 82° (E) 2,002 11.2 -3.9°
Sets 06:01:02 0° 76° (ENE) 2,906 11.9 -3.5°
